Tracking 35048 objects as of 19-Aug-2026
HD Live streaming from Space Station
objects crossing your sky now

DELTA 1 R/B(2)


DELTA 1 R/B(2) is no longer on orbit


NORAD ID: 11117
Int'l Code: 1978-106C
Launch date: November 19, 1978
Source: United States (US)
Launch site: AIR FORCE EASTERN TEST RANGE (AFETR)
Decay date: 1984-07-04

Note: This is a ROCKET BODY
Your satellite tracking list
Your tracking list is empty




NASA's NSSDC Master Catalog

Two Line Element Set (TLE):
1 11117U 78106  C 82332.52897654  .57347244 +03524-5 +05188-4 0  9998
2 11117 026.8465 148.8152 0064098 008.3580 352.5050 16.39589691088344
Source of the keplerian elements: AFSPC